User: anonymous   Login
Location: Unspecified
(0.0000°N, 0.0000°E)
Time: 14:31:44
(UTC+02:00)
Language:

IUS-9 SRM-1 - Orbit

View from above orbital plane
View from above orbital plane
View from above satellite
View from above satellite

Ground track
Ground track

The orbit data is extracted from the following two-line orbital elements,

1 19884U 89021C   15114.55068796  .00009519  00000-0  12117-2 0  9996
2 19884 026.4653 251.2782 6033701 007.3792 014.6199 04.01303795301975
Epoch (UTC): 24 April 2015 13:12:59
Eccentricity: 0.6033701
inclination: 26.4653°
perigee height: 256 km
apogee height: 20441 km
right ascension of ascending node: 251.2782°
argument of perigee: 7.3792°
revolutions per day: 4.01303795
mean anomaly at epoch: 14.6199°
orbit number at epoch: 30197

The dashed part of the orbit path shows where the satellite is in the earth's shadow,  

DLR